TimeAEST,TemperatureF,Dew PointF,Humidity,Sea Level PressureIn,VisibilityMPH,Wind Direction,Wind SpeedMPH,Gust SpeedMPH,PrecipitationIn,Events,Conditions,WindDirDegrees,DateUTC
12:00 AM,55,48,69,30.25,19,NW,11.5,,,,Mostly Cloudy,310,2013-06-30 14:00:00
12:00 AM,55.4,48.2,77,30.24,6.2,NW,11.5,-,N/A,,Mostly Cloudy,310,2013-06-30 14:00:00
12:30 AM,55.4,50.0,82,30.21,6.2,NNW,11.5,-,N/A,,Mostly Cloudy,330,2013-06-30 14:30:00
1:00 AM,54,49,76,30.24,,NNW,11.5,,,,,340,2013-06-30 15:00:00
1:00 AM,53.6,48.2,82,30.21,-9999.0,NNW,11.5,-,N/A,,Clear,340,2013-06-30 15:00:00
1:30 AM,55.4,48.2,77,30.21,-9999.0,North,10.4,-,N/A,,Clear,350,2013-06-30 15:30:00
2:00 AM,53.6,48.2,82,30.21,-9999.0,North,15.0,-,N/A,,Clear,350,2013-06-30 16:00:00
2:30 AM,53.6,48.2,82,30.18,-9999.0,North,16.1,-,N/A,,Clear,350,2013-06-30 16:30:00
3:00 AM,52,46,75,30.22,19,North,13.8,,,,Partly Cloudy,350,2013-06-30 17:00:00
3:00 AM,51.8,46.4,82,30.21,-9999.0,North,13.8,-,N/A,,Clear,350,2013-06-30 17:00:00
3:30 AM,51.8,46.4,82,30.18,6.2,North,12.7,-,N/A,,Partly Cloudy,350,2013-06-30 17:30:00
4:00 AM,50,46,80,30.21,,North,15.0,,,,,0,2013-06-30 18:00:00
4:00 AM,50.0,46.4,87,30.18,6.2,North,15.0,-,N/A,,Mostly Cloudy,360,2013-06-30 18:00:00
4:30 AM,53.6,44.6,72,30.18,-9999.0,North,13.8,-,N/A,,Clear,350,2013-06-30 18:30:00
5:00 AM,51.8,46.4,82,30.18,-9999.0,North,11.5,-,N/A,,Clear,360,2013-06-30 19:00:00
5:30 AM,53.6,44.6,72,30.18,-9999.0,North,12.7,-,N/A,,Clear,350,2013-06-30 19:30:00
6:00 AM,53,45,66,30.20,19,North,15.0,,,,Partly Cloudy,0,2013-06-30 20:00:00
6:00 AM,51.8,44.6,76,30.18,6.2,North,15.0,-,N/A,,Mostly Cloudy,360,2013-06-30 20:00:00
6:30 AM,55.4,44.6,67,30.18,6.2,NNW,11.5,-,N/A,,Mostly Cloudy,340,2013-06-30 20:30:00
7:00 AM,55,45,60,30.23,,NNW,10.4,,,,,330,2013-06-30 21:00:00
7:00 AM,55.4,44.6,67,30.21,6.2,NNW,10.4,-,N/A,,Mostly Cloudy,330,2013-06-30 21:00:00
7:30 AM,53.6,46.4,77,30.21,6.2,North,9.2,-,N/A,,Mostly Cloudy,350,2013-06-30 21:30:00
8:00 AM,53.6,46.4,77,30.21,6.2,North,17.3,-,N/A,,Mostly Cloudy,350,2013-06-30 22:00:00
8:30 AM,55.4,46.4,72,30.21,6.2,North,17.3,-,N/A,,Mostly Cloudy,350,2013-06-30 22:30:00
9:00 AM,55,46,63,30.24,19,North,15.0,,,,Partly Cloudy,350,2013-06-30 23:00:00
9:30 AM,55.4,46.4,72,30.21,6.2,North,13.8,-,N/A,,Mostly Cloudy,350,2013-06-30 23:30:00
10:00 AM,56,47,64,30.25,,North,12.7,,,,,350,2013-07-01 00:00:00
10:00 AM,55.4,46.4,72,30.24,6.2,North,12.7,-,N/A,,Mostly Cloudy,350,2013-07-01 00:00:00
11:00 AM,55.4,50.0,82,30.24,5.0,NNW,16.1,-,N/A,Rain,Light Rain Showers,330,2013-07-01 01:00:00
11:30 AM,57.2,50.0,77,30.21,6.2,North,15.0,-,N/A,,Mostly Cloudy,360,2013-07-01 01:30:00
12:00 PM,60,49,56,30.22,25,North,17.3,,,,Partly Cloudy,0,2013-07-01 02:00:00
12:00 PM,59.0,48.2,67,30.18,6.2,North,17.3,-,N/A,,Mostly Cloudy,360,2013-07-01 02:00:00
12:30 PM,60.8,48.2,63,30.18,6.2,North,15.0,-,N/A,,Mostly Cloudy,350,2013-07-01 02:30:00
1:00 PM,63,48,48,30.19,,NW,11.5,,,,,320,2013-07-01 03:00:00
1:00 PM,62.6,48.2,59,30.15,6.2,NW,11.5,-,N/A,,Mostly Cloudy,320,2013-07-01 03:00:00
1:30 PM,64.4,46.4,52,30.15,6.2,NW,17.3,-,N/A,,Scattered Clouds,310,2013-07-01 03:30:00
2:00 PM,62.6,46.4,55,30.15,6.2,West,18.4,-,N/A,,Mostly Cloudy,280,2013-07-01 04:00:00
2:30 PM,60.8,46.4,59,30.15,6.2,West,13.8,-,N/A,,Mostly Cloudy,280,2013-07-01 04:30:00
3:00 PM,61,47,50,30.17,25,WNW,10.4,,,,Mostly Cloudy,300,2013-07-01 05:00:00
3:00 PM,60.8,46.4,59,30.15,6.2,WNW,10.4,-,N/A,,Mostly Cloudy,300,2013-07-01 05:00:00
3:30 PM,60.8,48.2,63,30.15,6.2,NNW,8.1,-,N/A,Rain,Light Rain Showers,340,2013-07-01 05:30:00
4:00 PM,59,49,61,30.18,,NW,10.4,,,,,310,2013-07-01 06:00:00
4:00 PM,59.0,50.0,72,30.15,6.2,NW,10.4,-,N/A,Rain,Light Rain Showers,310,2013-07-01 06:00:00
4:22 PM,59.0,50.0,72,30.15,3.7,NW,9.2,-,N/A,Rain,Light Rain Showers,320,2013-07-01 06:22:00
4:30 PM,57.2,51.8,82,30.15,3.7,NNW,12.7,-,N/A,Rain,Light Rain Showers,330,2013-07-01 06:30:00
4:49 PM,57.2,51.8,82,30.15,6.2,NNW,11.5,-,N/A,,Mostly Cloudy,340,2013-07-01 06:49:00
5:00 PM,57.2,51.8,82,30.15,6.2,NNW,10.4,-,N/A,,Mostly Cloudy,340,2013-07-01 07:00:00
5:30 PM,57.2,51.8,82,30.15,6.2,North,9.2,-,N/A,Rain,Light Rain Showers,360,2013-07-01 07:30:00
6:00 PM,57,51,74,30.19,6,North,10.4,,,Rain,Light Rain Showers,350,2013-07-01 08:00:00
6:00 PM,57.2,51.8,82,30.15,6.2,North,10.4,-,N/A,,Mostly Cloudy,350,2013-07-01 08:00:00
6:18 PM,57.2,51.8,82,30.18,3.7,NNW,9.2,-,N/A,Rain,Light Rain Showers,330,2013-07-01 08:18:00
6:30 PM,55.4,53.6,94,30.18,2.5,WSW,8.1,-,N/A,Rain,Light Rain Showers,250,2013-07-01 08:30:00
7:00 PM,55,53,92,30.20,,North,6.9,,,,,10,2013-07-01 09:00:00
7:00 PM,55.4,53.6,94,30.18,6.2,North,6.9,-,N/A,,Mostly Cloudy,10,2013-07-01 09:00:00
7:30 PM,55.4,53.6,94,30.18,-9999.0,NNE,11.5,-,N/A,,Clear,20,2013-07-01 09:30:00
8:00 PM,55.4,51.8,88,30.18,6.2,North,12.7,-,N/A,,Mostly Cloudy,350,2013-07-01 10:00:00
8:30 PM,57.2,50.0,77,30.18,6.2,North,12.7,-,N/A,,Mostly Cloudy,350,2013-07-01 10:30:00
9:00 PM,56,50,73,30.20,19,NW,10.4,,,,Mostly Cloudy,310,2013-07-01 11:00:00
9:00 PM,55.4,50.0,82,30.18,6.2,NW,10.4,-,N/A,,Mostly Cloudy,310,2013-07-01 11:00:00
9:30 PM,57.2,50.0,77,30.18,-9999.0,NNW,12.7,-,N/A,,Clear,330,2013-07-01 11:30:00
10:00 PM,56,48,67,30.21,,NNW,9.2,,,,,330,2013-07-01 12:00:00
10:00 PM,55.4,48.2,77,30.18,-9999.0,NNW,9.2,-,N/A,,Clear,330,2013-07-01 12:00:00
10:30 PM,53.6,50.0,88,30.18,-9999.0,North,12.7,-,N/A,,Clear,360,2013-07-01 12:30:00
11:00 PM,55.4,48.2,77,30.18,-9999.0,North,11.5,-,N/A,,Clear,350,2013-07-01 13:00:00
11:30 PM,55.4,48.2,77,30.18,-9999.0,NNW,9.2,-,N/A,,Clear,340,2013-07-01 13:30:00